Quincy, IL

12:19 AM CDT on October 24, 2019 (GMT -0500)
Quincy Regional-Baldwin

Weather History for KUIN - September, 2019

Change the Weather History Date:

Saturday, September 21, 2019

  Actual Average Record
Temperature  
Mean Temperature 76 °F 64 °F  
Max Temperature 81 °F 75 °F 95 °F (1940)
Min Temperature 71 °F 53 °F 38 °F (1991)
Degree Days  
Heating Degree Days 0 4  
Month to date heating degree days 0 36  
Since 1 July heating degree days 2 41  
Cooling Degree Days 11 3  
Month to date cooling degree days 200 104  
Year to date cooling degree days 1257 1057  
Growing Degree Days 26 (Base 50)    
Moisture  
Dew Point 69 °F    
Average Humidity 84    
Maximum Humidity 97    
Minimum Humidity 67    
Precipitation  
Precipitation 0.88 in 0.12 in 3.98 in (1947)
Month to date precipitation 1.64 2.30  
Year to date precipitation 32.67 28.05  
Sea Level Pressure  
Sea Level Pressure 30.02 in    
Wind  
Wind Speed 10 mph ()    
Max Wind Speed 18 mph    
Max Gust Speed 27 mph    
Visibility 7.4 miles    
Events Fog , Rain , Thunderstorm    
T = Trace of Precipitation, MM = Missing Value Source: Averaged Metar Reports

Daily Weather History Graph

Daily Weather History Graph

Search for Another Location

Airport or City:

Astronomy

Sep. 21, 2019 Rise Set
Actual Time 6:51 AM CDT 7:03 PM CDT
Civil Twilight 6:24 AM CDT 7:30 PM CDT
Nautical Twilight 5:52 AM CDT 8:02 PM CDT
Astronomical Twilight 5:20 AM CDT 8:34 PM CDT
Moon 11:42 PM CDT (9/21) 1:57 PM CDT (9/21)
Length of Visible Light 13h 06m
Length of Day
12h 12m
Waning Gibbous, 54% of the Moon is Illuminated
Sep 21
Waning Gibbous
Sep 21
Last Quarter
Sep 28
New
Oct 5
First Quarter
Oct 13
Full

Hourly Weather History & Observations

Time (CDT) Temp. Heat Index Dew Point Humidity Pressure Visibility Wind Dir Wind Speed Gust Speed Precip Events Conditions
12:54 AM 72.0 °F - 66.9 °F 84% 30.04 in 10.0 mi South 9.2 mph - N/A   Clear
1:54 AM 72.0 °F - 66.9 °F 84% 30.04 in 10.0 mi South 8.1 mph - N/A   Clear
2:54 AM 73.0 °F - 66.9 °F 81% 30.03 in 10.0 mi South 11.5 mph - N/A   Mostly Cloudy
3:54 AM 73.9 °F - 66.9 °F 79% 30.04 in 8.0 mi SSW 12.7 mph - N/A   Overcast
4:05 AM 72.0 °F - 68.0 °F 87% 30.06 in 1.8 mi SSW 12.7 mph 26.5 mph 0.11 in Rain Heavy Rain
4:12 AM 71.1 °F - 68.0 °F 90% 30.05 in 3.0 mi South 9.2 mph - 0.15 in Rain Rain
4:54 AM 72.0 °F - 68.0 °F 87% 30.04 in 10.0 mi South 9.2 mph - 0.15 in   Overcast
5:54 AM 72.0 °F - 66.9 °F 84% 30.03 in 10.0 mi South 9.2 mph - N/A   Partly Cloudy
6:54 AM 72.0 °F - 66.9 °F 84% 30.03 in 10.0 mi South 10.4 mph - N/A   Mostly Cloudy
7:54 AM 73.0 °F - 66.9 °F 81% 30.04 in 10.0 mi South 10.4 mph - N/A   Mostly Cloudy
8:54 AM 75.0 °F - 68.0 °F 79% 30.04 in 10.0 mi South 12.7 mph 23.0 mph N/A   Scattered Clouds
9:54 AM 78.1 °F - 68.0 °F 71% 30.04 in 10.0 mi South 17.3 mph 24.2 mph N/A   Scattered Clouds
10:54 AM 79.0 °F - 68.0 °F 69% 30.03 in 10.0 mi South 16.1 mph 25.3 mph N/A   Mostly Cloudy
11:06 AM 80.1 °F 82.9 °F 69.1 °F 69% 30.05 in 10.0 mi SSW 13.8 mph 25.3 mph N/A   Mostly Cloudy
11:27 AM 80.1 °F 82.7 °F 68.0 °F 67% 30.05 in 10.0 mi South 17.3 mph 24.2 mph N/A   Mostly Cloudy
11:54 AM 80.1 °F 82.9 °F 69.1 °F 69% 30.02 in 10.0 mi SSW 16.1 mph 24.2 mph N/A   Overcast
12:01 PM 80.1 °F 82.9 °F 69.1 °F 69% 30.04 in 10.0 mi SSW 15.0 mph 24.2 mph N/A   Overcast
12:28 PM 79.0 °F - 69.1 °F 72% 30.03 in 10.0 mi SSW 13.8 mph - N/A   Overcast
12:54 PM 80.1 °F 82.9 °F 69.1 °F 69% 30.01 in 10.0 mi SSW 12.7 mph - N/A   Overcast
1:32 PM 79.0 °F - 69.1 °F 72% 30.02 in 10.0 mi South 12.7 mph 24.2 mph N/A   Overcast
1:54 PM 79.0 °F - 69.1 °F 72% 30.00 in 10.0 mi SSE 12.7 mph 20.7 mph N/A   Overcast
2:36 PM 73.0 °F - 71.1 °F 93% 30.02 in 1.8 mi South 5.8 mph - 0.10 in Rain Heavy Rain
2:45 PM 73.0 °F - 71.1 °F 93% 30.03 in 1.8 mi SSW 13.8 mph 19.6 mph 0.15 in Rain , Thunderstorm Heavy Rain
2:54 PM 72.0 °F - 71.1 °F 97% 30.01 in 0.8 mi SSW 12.7 mph 25.3 mph 0.34 in Rain , Thunderstorm Heavy Rain
2:57 PM 72.0 °F - 70.0 °F 93% 30.02 in 0.5 mi SSW 11.5 mph - 0.13 in Fog , Rain Rain
3:02 PM 72.0 °F - 71.1 °F 97% 30.02 in 0.8 mi SSW 8.1 mph - 0.17 in Rain , Thunderstorm Heavy Rain
3:06 PM 73.0 °F - 71.1 °F 93% 30.02 in 1.0 mi South 8.1 mph - 0.22 in Rain , Thunderstorm Heavy Rain
3:11 PM 73.0 °F - 71.1 °F 93% 30.02 in 2.0 mi South 8.1 mph - 0.22 in Rain , Thunderstorm Light Rain
3:20 PM 73.0 °F - 71.1 °F 93% 30.02 in 6.0 mi South 8.1 mph - 0.23 in Rain , Thunderstorm Light Rain
3:26 PM 73.0 °F - 71.1 °F 93% 30.02 in 2.5 mi SSW 11.5 mph 19.6 mph 0.27 in Rain , Thunderstorm Heavy Rain
3:33 PM 73.0 °F - 71.1 °F 93% 30.02 in 1.0 mi South 13.8 mph 19.6 mph 0.38 in Rain Heavy Rain
3:40 PM 73.0 °F - 71.1 °F 93% 30.02 in 3.0 mi South 12.7 mph 19.6 mph 0.38 in Rain Light Rain
3:54 PM 73.0 °F - 70.0 °F 90% 30.00 in 10.0 mi South 13.8 mph - 0.38 in   Overcast
4:54 PM 73.9 °F - 71.1 °F 91% 30.00 in 10.0 mi South 10.4 mph - 0.00 in   Overcast
5:54 PM 73.9 °F - 71.1 °F 91% 29.99 in 10.0 mi South 4.6 mph - N/A   Overcast
6:54 PM 73.9 °F - 71.1 °F 91% 29.97 in 10.0 mi South 9.2 mph - N/A   Clear
7:54 PM 73.9 °F - 70.0 °F 87% 29.98 in 10.0 mi South 10.4 mph - N/A   Clear
8:54 PM 73.9 °F - 71.1 °F 91% 29.98 in 9.0 mi SSE 6.9 mph - N/A   Overcast
9:54 PM 73.9 °F - 71.1 °F 91% 29.98 in 10.0 mi SSE 9.2 mph - 0.01 in   Overcast
10:54 PM 73.9 °F - 71.1 °F 91% 29.98 in 10.0 mi South 9.2 mph - N/A   Overcast
11:54 PM 75.0 °F - 70.0 °F 84% 29.97 in 10.0 mi South 10.4 mph - N/A   Overcast